Location: Unspecified
(32.7310°N, 0.0000°E)
Time: 20:34:51
(UTC+00:00)

ISS - Visible Passes

Search period start: 19 May 2019 00:00
Search period end: 29 May 2019 00:00
Orbit: 407 x 410 km, 51.6° (Epoch: 20 May)

Date Brightness Start Highest point End Pass type
(mag) Time Alt. Az. Time Alt. Az. Time Alt. Az.
19 May -2.3 03:20:37 10° NNW 03:23:46 39° NE 03:26:52 10° ESE visible
19 May -2.9 19:58:06 10° WSW 20:01:18 50° NW 20:04:32 10° NE visible
20 May -1.2 02:30:08 10° NNW 02:32:46 21° NE 02:35:23 10° E visible
20 May -2.9 04:06:27 10° WNW 04:09:20 28° SW 04:12:13 10° SSE visible
20 May -0.4 20:45:56 10° NW 20:47:20 12° NNW 20:48:43 10° N visible
21 May0.301:46:07E01:46:07E01:37:06NNWvisible
21 May -3.3 03:19:20 44° SSE 03:19:20 44° SSE 03:21:47 10° SE visible
21 May -0.8 19:53:43 10° W 19:56:13 20° NW 19:58:43 10° NNE visible
